カタログに戻る

STARLINK-34869

運用中通信VLEO
NORAD 65371·PAYLOAD·🇺🇸 United States

打ち上げ Aug 28, 2025 から Cape Canaveral Space Force Station

Loading…

次のパス (今後24時間)

TLE

最新Source: CelesTrak SupGP

元期: Sep 15, 2026, 03:58 UTC

1 65371C 25190W   26258.16576389  .00072420  00000+0  21391-2 0  2587
2 65371  53.1585   6.5405 0001170 102.0341   4.7223 15.34362457    10

AllMySatでSTARLINK-34869をリアルタイム追跡

Download on the App Store